Regional Weather Roundup
Issued by NWS

Home | Current Version | Previous Version | Graphics & Text | Print | Product List | Glossary Off
Versions: 1 2 3 4 5 6 7 8 9 10 11 12 13 14 15 16 17 18 19 20 21 22 23 24 25 26 27 28 29 30 31 32 33 34 35 36 37 38 39 40 41 42 43 44 45 46 47 48 49 50

000
ASUS44 KMEG 291510
RWRTN
TENNESSEE HOURLY STATE WEATHER ROUNDUP
NATIONAL WEATHER SERVICE MEMPHIS TN
1000 AM CDT FRI APR 29 2016

TNZ002-004-019-021-049-052-054-088>092-291600-
WEST TENNESSEE

CITY           SKY/WX    TMP DP  RH WIND       PRES   REMARKS
MEMPHIS INTL   CLOUDY    72  54  53 E10       29.90F
NWS MEMPHIS      N/A     68 N/A N/A MISG        N/A
JACKSON        CLOUDY    67  55  65 CALM      29.99R
DYERSBURG      CLOUDY    63  54  72 E7        30.01R
UNION CITY     SUNNY     63  55  77 E3        30.01R
LEXINGTON      SUNNY     66  55  68 E6        29.99S
$$

TNZ008-025-027-028-033-062-065-066-291600-
NORTH MIDDLE TENNESSEE

CITY           SKY/WX    TMP DP  RH WIND       PRES   REMARKS
NASHVILLE      CLOUDY    73  50  44 SE8       30.02F
CLARKSVILLE    MOSUNNY   67  55  65 E7        30.02F
SMYRNA         CLOUDY    74  56  53 E6        30.02F
COOKEVILLE     SUNNY     73  55  53 CALM      30.04R
CROSSVILLE     SUNNY     73  45  36 VRB3      30.08F
$$

TNZ061-075-076-078-094-096-097-291600-
SOUTH MIDDLE TENNESSEE

CITY           SKY/WX    TMP DP  RH WIND       PRES   REMARKS
FAYETTEVILLE   SUNNY     73  54  49 SE7       30.03F
TULLAHOMA      SUNNY     73  48  40 E5        30.04S
WINCHESTER     SUNNY     77  50  38 SE8       30.04S
MCMINNVILLE    SUNNY     73  54  49 VRB7      30.04S
COLUMBIA       SUNNY     73  55  53 SE8       30.00R
SHELBYVILLE    SUNNY     75  55  50 E6        30.03F
$$

TNZ017-018-042-046-047-291600-
NORTHEAST TENNESSEE

CITY           SKY/WX    TMP DP  RH WIND       PRES   REMARKS
TRI CITIES     MOSUNNY   71  51  49 VRB5      30.06S
$$

TNZ012-013-036-069-073-074-291600-
CENTRAL EAST TENNESSEE

CITY           SKY/WX    TMP DP  RH WIND       PRES   REMARKS
KNOXVILLE      MOSUNNY   75  49  39 NE7       30.05R
OAK RIDGE      SUNNY     74  52  46 VRB5      30.06R
MORRISTOWN     SUNNY     73  52  46 VRB3      30.07R
$$

TNZ083-085-099-291600-
SOUTHEAST TENNESSEE

CITY           SKY/WX    TMP DP  RH WIND       PRES   REMARKS
CHATTANOOGA    MOSUNNY   75  52  44 N5        30.05F
$$

SKY/WX REPORTED AS FAIR MEANS FEW OR NO CLOUDS BELOW
12 THOUSAND FEET.




USA.gov is the U.S. government's official web portal to all federal, state and local government web resources and services.